{"data":{"norad_id":66367,"intl_designator":"2025-254V","name":"STARLINK-35846","alt_names":[],"object_type":"PAYLOAD","status":"ACTIVE","operator":null,"country":"US","launch_date":"2025-11-06","launch_site_code":"AFWTR","launch_vehicle":null,"mission":null,"orbit_class":"UNKNOWN","rcs_meters":null,"size_class":null,"mass_kg":null,"dimensions":null,"purposes":["comms"],"wikipedia_slug":null,"has_3d_model":false,"image_url":null,"decayed_at":null,"tle_current":{"epoch":"2026-09-20T13:49:53.925312Z","epoch_age_seconds":86159,"freshness":"FRESH","line1":"1 66367U 25254V   26263.57631858  .00014230  00000+0  43130-3 0  9991","line2":"2 66367  53.1597  45.0971 0001353  82.6504 277.4652 15.34414239 48846","mean_motion":15.34414239,"eccentricity":0.0001353,"inclination_deg":53.1597,"raan_deg":45.0971,"arg_perigee_deg":82.6504,"mean_anomaly_deg":277.4652,"bstar":0.0004313,"rev_number":4884,"period_min":93.846887196411,"perigee_km":461.73535926718,"apogee_km":463.58647918412,"semimajor_km":6840.7979192256,"source":"CELESTRAK","updated_at":"2026-09-21T09:00:35.883088Z"}}}